Temperature
2 2 1 1 1 -0 -0 2 3 4 3 3 1 -0 -1 -2 -3 -3 -4 -4 -4 -4 -4 -4 -4 -4 -4 -4 -4 -4 -4 -4 -5 -5 -5 -5 -5 -5 -5 -5 -5 -5 -5 -5
-0 -0 -0 -0 0 0 0 1 1 1 2 0 -1 -2 -3 -3 -4 -4 -4 -4 -4 -5 -5 -5 -5 -4 -5 -5 -5 -5 -5 -5 -5 -5 -6 -6 -6 -6 -6 -6 -6 -6 -6 -6
1 -1 -1 1 0 -0 -1 -1 -0 1 1 -1 -2 -3 -4 -4 -5 -5 -5 -5 -5 -5 -5 -5 -5 -5 -5 -5 -6 -6 -6 -6 -6 -6 -6 -6 -6 -7 -7 -7 -7 -7 -6 -6
0 -1 1 2 -2 -1 -1 -2 -2 -2 -2 -3 -3 -5 -5 -5 -5 -5 -5 -5 -5 -6 -6 -6 -6 -6 -6 -6 -6 -6 -7 -7 -7 -7 -7 -7 -7 -7 -7 -7 -7 -7 -7 -7
-0 1 2 1 -3 -3 -3 -2 -3 -3 -4 -5 -6 -6 -5 -5 -5 -5 -5 -6 -6 -6 -6 -6 -6 -6 -7 -7 -7 -8 -8 -8 -8 -8 -8 -8 -8 -8 -8 -8 -8 -8 -8 -8
-1 -0 1 1 -4 -5 -3 -2 -4 -5 -5 -5 -6 -3 -3 -5 -6 -6 -6 -6 -6 -6 -7 -7 -7 -7 -7 -8 -8 -8 -9 -9 -9 -9 -9 -9 -9 -9 -9 -9 -9 -9 -9 -9
-1 -0 1 -3 -6 -5 -2 -1 -5 -6 -6 -6 -6 -5 -5 -6 -6 -6 -7 -7 -7 -7 -7 -8 -8 -8 -8 -9 -9 -9 -9 -9 -10 -9 -9 -9 -9 -9 -9 -9 -9 -9 -9 -9
-2 -1 -1 -6 -6 -4 -3 -6 -6 -7 -7 -7 -7 -7 -7 -7 -7 -7 -7 -7 -8 -8 -8 -9 -9 -9 -9 -9 -10 -10 -10 -10 -10 -10 -10 -10 -10 -10 -10 -10 -10 -10 -10 -10
-3 -2 -5 -7 -6 -6 -6 -6 -7 -7 -7 -7 -7 -7 -8 -8 -8 -8 -8 -8 -9 -9 -9 -9 -10 -10 -10 -10 -10 -10 -11 -11 -11 -11 -11 -11 -11 -11 -11 -11 -11 -11 -11 -11
-6 -5 -6 -7 -7 -7 -7 -7 -7 -7 -7 -7 -8 -8 -8 -8 -8 -8 -9 -9 -9 -10 -10 -10 -10 -11 -11 -11 -11 -11 -11 -11 -11 -11 -11 -11 -11 -11 -11 -11 -12 -12 -12 -11
-6 -6 -8 -8 -8 -7 -7 -7 -8 -8 -8 -8 -8 -8 -9 -9 -9 -9 -10 -10 -10 -10 -10 -11 -11 -11 -11 -11 -12 -12 -12 -12 -12 -12 -12 -12 -12 -12 -12 -12 -12 -12 -12 -12
-5 -6 -7 -7 -7 -7 -8 -8 -8 -8 -8 -8 -9 -9 -9 -9 -10 -10 -10 -11 -11 -11 -11 -11 -11 -12 -12 -12 -12 -12 -12 -12 -12 -13 -13 -13 -13 -13 -12 -12 -12 -12 -13 -13
-8 -8 -8 -8 -8 -8 -8 -8 -8 -9 -9 -9 -9 -9 -10 -10 -10 -11 -11 -11 -11 -12 -12 -12 -12 -12 -12 -13 -13 -13 -13 -13 -13 -13 -13 -13 -13 -13 -13 -13 -13 -13 -13 -13
-8 -8 -9 -9 -9 -9 -9 -9 -9 -9 -10 -10 -10 -10 -11 -11 -11 -11 -11 -12 -12 -12 -12 -12 -13 -13 -13 -13 -13 -13 -13 -13 -14 -14 -14 -14 -14 -14 -14 -14 -13 -13 -13 -13
-9 -9 -9 -9 -10 -10 -10 -10 -10 -10 -10 -11 -11 -11 -11 -12 -12 -12 -12 -12 -13 -13 -13 -13 -13 -14 -14 -14 -14 -14 -14 -14 -14 -14 -14 -14 -14 -14 -14 -14 -14 -14 -14 -13
-10 -10 -10 -10 -10 -11 -11 -11 -11 -11 -11 -11 -11 -12 -12 -12 -12 -13 -13 -13 -13 -13 -14 -14 -14 -14 -14 -14 -14 -14 -14 -14 -15 -15 -15 -15 -15 -15 -15 -15 -15 -15 -15 -14
-11 -11 -11 -11 -11 -11 -11 -11 -11 -11 -12 -12 -12 -12 -12 -12 -13 -13 -13 -13 -14 -14 -14 -14 -14 -15 -15 -15 -15 -15 -15 -15 -15 -15 -15 -15 -15 -15 -15 -15 -15 -15 -15 -15
-10 -10 -10 -11 -11 -11 -12 -12 -12 -12 -12 -12 -12 -13 -13 -13 -13 -13 -14 -14 -14 -14 -14 -15 -15 -15 -15 -15 -15 -15 -15 -15 -15 -15 -15 -15 -16 -16 -16 -16 -16 -16 -16 -15
-11 -11 -11 -11 -12 -12 -12 -12 -12 -12 -13 -13 -13 -13 -13 -13 -14 -14 -14 -14 -14 -15 -15 -15 -15 -15 -15 -16 -16 -16 -16 -16 -16 -16 -16 -16 -16 -16 -16 -16 -16 -16 -16 -16
-11 -12 -12 -12 -12 -12 -12 -13 -13 -13 -13 -13 -13 -14 -14 -14 -14 -14 -15 -15 -15 -15 -15 -16 -16 -16 -16 -16 -16 -16 -16 -16 -16 -16 -16 -16 -16 -16 -17 -17 -17 -16 -16 -16
-12 -12 -12 -12 -12 -13 -13 -13 -13 -13 -14 -14 -14 -14 -14 -14 -15 -15 -15 -15 -15 -16 -16 -16 -16 -16 -16 -16 -17 -17 -17 -16 -17 -17 -17 -17 -17 -17 -17 -17 -17 -17 -17 -17
-13 -13 -13 -13 -13 -13 -14 -14 -14 -14 -14 -14 -14 -14 -15 -15 -15 -15 -16 -16 -16 -16 -16 -16 -16 -16 -17 -17 -17 -17 -17 -17 -17 -17 -17 -17 -17 -17 -17 -17 -17 -17 -17 -17
-13 -13 -13 -13 -14 -14 -14 -14 -14 -14 -14 -15 -15 -15 -15 -16 -16 -16 -16 -16 -16 -16 -16 -16 -17 -17 -17 -17 -17 -17 -17 -17 -17 -17 -17 -17 -17 -17 -17 -17 -17 -17 -17 -17
-13 -14 -14 -14 -14 -14 -15 -15 -15 -15 -15 -15 -15 -15 -16 -16 -16 -16 -16 -16 -16 -16 -17 -17 -17 -17 -17 -17 -17 -17 -17 -17 -17 -17 -17 -17 -17 -17 -17 -17 -17 -17 -17 -17
-14 -14 -14 -15 -15 -15 -15 -15 -15 -15 -15 -16 -16 -16 -16 -16 -16 -16 -16 -16 -17 -17 -17 -17 -17 -17 -17 -17 -17 -17 -17 -17 -17 -17 -17 -17 -17 -17 -17 -17 -17 -17 -17 -17
-14 -15 -15 -15 -15 -15 -15 -15 -15 -15 -16 -16 -16 -16 -16 -16 -17 -17 -17 -17 -17 -17 -17 -17 -17 -17 -17 -18 -18 -17 -17 -17 -17 -17 -17 -18 -18 -18 -17 -17 -17 -17 -17 -17
-15 -15 -15 -15 -15 -15 -16 -16 -16 -16 -16 -16 -16 -16 -17 -17 -17 -17 -17 -17 -17 -17 -17 -17 -18 -18 -18 -18 -18 -18 -18 -18 -18 -18 -18 -18 -18 -18 -18 -18 -18 -18 -18 -17
Wind_Speed
11 9 7 10 11 13 15 15 14 14 14 13 8 7 6 5 3 3 3 3 3 3 3 2 2 2 2 2 2 1 1 2 2 2 2 2 2 2 2 2 3 3 4 4
7 7 8 12 15 16 17 17 17 17 17 10 7 4 5 5 4 4 4 4 3 3 3 3 3 3 2 2 2 2 2 2 2 2 2 2 2 3 3 3 3 4 4 5
7 2 5 12 12 14 11 11 11 15 12 4 4 5 6 5 4 5 5 4 4 4 3 3 3 3 3 2 2 2 2 2 2 2 2 2 2 3 3 4 4 4 5 5
4 2 11 5 1 8 10 10 11 9 7 6 5 5 5 5 5 4 4 4 4 3 3 3 2 2 2 1 1 2 2 2 2 2 3 3 3 3 4 4 4 5 5 6
4 7 11 4 2 4 7 7 8 10 8 6 3 3 4 3 4 4 4 3 3 3 2 2 1 1 1 1 1 2 2 3 3 3 3 3 4 4 4 4 5 5 6 6
6 7 9 3 2 1 2 6 4 6 7 5 3 5 4 1 2 3 2 2 2 1 1 1 1 1 2 2 2 3 3 3 3 3 4 4 4 5 5 5 5 6 6 6
10 10 8 1 1 4 5 4 0 3 4 4 5 5 3 1 2 2 1 1 1 1 1 1 1 2 2 3 3 3 3 3 3 4 4 4 4 4 5 5 5 6 6 6
7 9 8 2 5 5 3 1 1 2 3 4 5 4 3 2 2 1 1 1 1 1 1 1 2 2 2 3 3 2 2 3 3 3 3 3 4 4 4 5 5 5 6 6
7 6 1 4 4 2 1 2 3 3 3 4 4 4 4 3 2 2 2 2 1 2 2 1 2 2 3 3 2 2 2 3 3 3 3 3 4 4 4 4 4 4 5 5
5 6 5 5 5 4 3 4 3 3 3 3 4 4 4 3 2 2 2 2 2 2 2 2 2 2 3 2 2 2 2 3 3 3 3 3 3 3 4 4 4 4 5 5
7 6 5 5 6 5 4 3 4 3 3 3 4 4 3 3 3 2 2 2 2 3 3 3 2 2 2 2 2 2 3 3 3 3 3 3 4 4 4 5 5 6 6 6
7 5 4 4 3 4 4 4 4 4 3 3 3 4 3 3 3 2 2 2 2 2 3 2 2 2 2 2 2 2 3 3 3 3 3 3 3 4 6 6 8 10 10 9
4 3 3 3 3 2 3 4 4 3 3 3 2 3 3 2 2 2 2 3 3 3 3 2 2 3 2 2 2 3 3 3 3 3 3 3 3 4 5 5 7 8 9 10
4 2 3 4 4 3 2 2 1 1 1 1 1 1 1 2 2 2 3 3 2 2 2 2 3 3 3 2 3 3 3 4 4 3 3 3 4 4 4 5 5 5 7 9
5 4 4 2 2 1 1 1 0 1 1 1 1 1 1 2 3 3 2 1 1 2 2 2 3 4 3 2 3 3 3 3 3 3 3 3 4 4 4 5 5 5 5 6
3 3 3 2 3 2 2 2 2 3 2 2 2 2 2 2 2 2 2 1 2 3 3 3 4 3 3 3 3 3 3 4 4 3 3 3 3 4 4 4 5 5 5 5
3 3 4 4 4 4 4 4 4 4 3 3 3 3 2 2 2 2 2 2 2 3 3 3 4 3 3 3 3 3 3 3 4 4 3 3 4 4 4 4 4 5 5 6
4 4 4 5 5 5 5 5 4 4 4 4 3 2 2 3 3 3 2 2 2 3 3 3 3 3 2 3 3 3 3 3 3 3 3 3 4 4 4 4 5 6 6 6
3 3 3 3 4 4 5 5 4 4 3 3 3 3 3 3 3 3 2 2 2 3 3 3 3 2 3 3 3 2 3 3 3 3 3 5 5 4 4 5 5 6 6 6
2 2 2 2 2 3 3 3 3 3 3 2 2 2 3 3 2 2 2 3 3 3 3 4 3 3 3 4 4 3 3 3 4 4 4 4 4 5 5 5 6 6 6 6
2 1 1 1 1 2 2 2 3 3 2 3 3 3 3 3 2 2 2 3 3 3 3 4 3 3 3 3 4 3 3 4 4 4 4 5 5 5 5 6 6 6 6 6
2 1 1 1 1 1 1 1 2 2 2 2 2 3 2 2 2 3 4 4 4 4 3 3 3 5 4 4 3 3 4 4 4 4 5 5 5 5 6 6 6 6 6 6
2 2 2 2 2 1 1 1 2 2 3 3 3 3 3 3 3 3 3 3 3 5 3 3 5 7 6 3 3 3 4 5 5 5 5 5 6 6 6 7 7 7 7 7
1 1 1 1 1 1 1 2 2 2 2 2 3 3 3 3 3 3 4 5 5 6 4 5 7 7 5 3 3 4 4 5 5 5 6 6 6 6 6 7 7 7 7 8
2 2 2 2 2 2 2 1 1 1 1 2 2 3 3 3 3 3 3 4 5 5 4 5 7 6 4 4 4 4 5 5 6 6 6 6 6 6 7 7 7 7 7 8
2 2 2 2 2 2 1 1 1 1 2 2 2 2 2 3 3 3 3 3 5 5 4 4 4 5 4 4 5 5 5 6 6 6 6 6 7 7 7 7 9 8 8 8
1 1 1 1 1 2 2 2 2 2 2 3 3 3 3 3 3 3 3 3 3 4 4 4 4 4 4 5 5 5 5 6 6 6 6 6 6 7 7 9 8 8 8 9
Wind_Direction
257 267 249 242 231 213 217 230 243 253 254 265 271 270 275 277 264 248 242 236 245 253 259 267 277 284 284 283 285 280 269 270 277 294 281 282 282 274 273 273 272 274 275 278
258 252 251 257 247 232 231 237 244 257 264 268 280 277 267 268 251 240 244 249 251 255 262 266 269 272 268 273 283 276 262 269 283 300 290 277 281 282 276 275 276 273 270 272
257 251 271 257 235 218 217 220 223 240 252 262 265 263 262 257 242 246 255 257 257 257 256 261 265 261 253 259 264 258 263 275 279 288 287 279 280 281 279 277 276 273 273 272
256 243 247 258 132 201 216 232 226 241 260 262 270 282 273 252 239 252 262 263 263 264 266 267 261 250 243 241 235 244 261 279 281 283 284 281 279 279 284 282 275 274 276 277
222 246 265 261 191 189 210 244 231 237 252 262 284 291 265 233 231 251 264 268 266 273 265 248 232 216 205 215 230 245 260 274 280 275 276 275 278 282 285 285 281 276 277 277
222 240 254 269 125 161 190 250 225 222 237 238 225 257 268 238 273 279 273 265 270 274 240 218 218 192 193 214 231 250 267 276 278 272 269 269 273 279 283 281 278 281 280 278
231 244 261 297 139 161 210 264 136 215 229 218 233 263 301 281 279 277 280 280 261 222 219 221 200 190 211 225 244 263 274 277 276 269 265 266 273 279 284 282 283 282 283 283
213 231 249 137 150 196 246 351 256 244 240 232 250 277 287 276 272 259 283 284 234 221 239 224 196 198 229 249 265 272 269 271 273 274 275 273 275 280 278 277 280 281 284 287
211 232 311 177 205 241 265 265 271 266 255 241 256 267 273 272 267 248 252 255 239 218 234 240 218 213 233 259 266 263 265 270 274 278 277 274 271 275 276 273 274 281 283 285
249 259 263 248 253 270 267 270 283 276 257 241 250 259 264 269 262 255 257 251 233 215 228 246 239 237 245 258 255 250 262 274 278 279 281 279 276 272 271 269 271 276 281 285
253 271 281 257 254 262 269 274 281 283 273 248 243 255 260 260 254 250 253 252 229 223 233 250 257 260 268 259 238 249 264 273 279 278 282 285 283 279 276 272 271 274 277 281
252 246 236 259 265 249 250 260 262 266 282 275 240 243 255 258 259 257 252 246 237 242 249 257 260 268 274 260 239 241 260 271 273 275 279 283 290 295 288 285 288 285 282 284
254 270 259 274 284 273 255 263 265 255 256 264 260 241 242 261 266 262 254 245 239 243 249 254 260 269 271 261 246 240 251 264 270 271 273 278 283 289 300 305 299 297 299 300
238 237 260 260 264 262 265 277 279 276 272 254 252 248 243 265 271 262 263 260 250 244 246 249 259 269 273 260 249 249 254 261 266 265 269 274 279 284 287 294 302 303 306 309
249 241 241 246 250 254 255 232 215 272 287 289 266 254 256 263 267 275 283 279 254 246 248 248 256 268 272 254 250 251 254 259 263 269 270 272 276 280 283 287 291 298 306 311
244 230 221 228 235 234 228 228 235 251 261 267 268 267 267 269 279 290 292 242 232 250 253 252 259 269 262 252 256 255 255 267 274 272 270 272 275 277 281 286 290 294 300 307
197 224 234 241 242 240 240 241 239 246 252 254 260 265 260 264 285 290 288 259 250 256 256 254 263 274 266 257 255 261 265 266 271 273 270 273 275 276 279 282 285 289 292 299
230 234 227 231 233 237 245 246 245 248 250 256 257 247 238 243 258 271 279 283 285 282 272 268 268 274 267 267 261 264 264 264 265 265 268 270 275 275 277 279 283 286 292 298
234 233 232 232 229 227 233 239 242 247 252 243 235 236 245 251 257 262 261 257 261 273 283 280 285 287 275 274 275 261 258 262 266 266 268 273 277 275 275 277 280 284 288 292
245 248 244 244 237 227 230 236 238 244 242 223 220 231 245 253 250 246 243 249 253 264 276 274 276 275 271 267 275 260 256 257 262 266 268 267 271 274 276 278 280 283 284 285
243 237 233 233 256 257 240 234 226 231 226 205 210 223 236 252 246 235 243 265 279 273 272 278 278 271 267 266 271 263 258 258 260 263 266 269 272 274 276 278 279 280 281 283
230 225 231 229 233 264 271 235 205 202 203 206 214 217 226 246 251 250 247 252 274 280 285 277 275 272 277 280 266 262 261 261 263 264 266 268 270 273 276 277 278 279 280 281
236 228 224 220 218 243 278 222 199 200 208 216 220 224 232 244 244 248 270 262 267 279 287 272 276 283 290 286 272 267 265 263 264 264 265 266 267 269 272 275 276 277 278 280
220 221 228 223 180 184 227 236 217 222 225 238 237 235 238 250 258 249 255 274 284 288 284 280 286 290 295 285 272 269 267 266 266 267 268 268 268 268 270 272 274 276 277 280
214 213 205 194 207 229 237 228 220 239 243 259 264 258 248 243 249 265 269 270 279 288 283 281 287 293 292 278 272 269 269 267 269 271 268 269 270 271 271 272 273 276 277 278
217 220 227 231 236 243 228 212 230 246 248 264 275 268 261 258 258 262 267 272 275 281 282 277 278 285 278 275 272 271 270 273 276 274 271 271 271 272 273 274 276 275 275 276
232 234 238 260 261 239 226 223 234 246 247 252 269 273 273 275 272 272 276 279 282 282 282 281 279 277 276 276 275 274 273 273 272 272 272 271 272 272 273 274 274 274 275 275
Height
1493 1494 1496 1494 1495 1499 1499 1489 1484 1474 1476 1474 1478 1481 1482 1483 1484 1484 1484 1484 1484 1484 1484 1484 1484 1484 1483 1483 1482 1482 1482 1481 1481 1481 1481 1481 1481 1480 1480 1480 1480 1479 1479 1478
1496 1495 1496 1493 1488 1490 1489 1487 1483 1479 1476 1477 1478 1480 1480 1481 1481 1481 1481 1481 1481 1481 1481 1481 1480 1480 1480 1479 1479 1478 1478 1478 1477 1477 1477 1477 1477 1477 1476 1476 1475 1475 1474 1473
1486 1496 1495 1481 1476 1480 1481 1480 1479 1474 1471 1475 1477 1477 1477 1477 1478 1478 1478 1478 1478 1477 1478 1477 1477 1477 1476 1476 1475 1475 1474 1474 1474 1473 1473 1473 1473 1473 1472 1471 1471 1470 1469 1469
1489 1494 1482 1465 1475 1474 1475 1474 1476 1474 1473 1474 1475 1475 1475 1475 1475 1475 1475 1475 1474 1474 1474 1474 1474 1473 1473 1472 1471 1471 1470 1470 1470 1470 1469 1469 1469 1468 1468 1467 1466 1466 1465 1464
1488 1479 1465 1467 1474 1475 1474 1471 1472 1472 1472 1473 1473 1473 1472 1472 1472 1472 1472 1472 1471 1471 1471 1471 1470 1470 1469 1468 1468 1467 1467 1466 1466 1466 1465 1465 1465 1464 1464 1463 1462 1461 1460 1459
1486 1478 1463 1460 1473 1474 1475 1468 1468 1469 1470 1471 1472 1470 1468 1469 1469 1469 1469 1469 1468 1467 1467 1467 1466 1466 1466 1465 1465 1464 1464 1463 1463 1462 1462 1462 1461 1460 1460 1459 1458 1457 1456 1455
1479 1472 1461 1470 1473 1474 1469 1461 1466 1466 1467 1469 1469 1468 1468 1466 1466 1466 1466 1466 1465 1464 1464 1464 1463 1463 1462 1462 1461 1461 1461 1460 1460 1459 1458 1458 1457 1457 1456 1455 1453 1452 1451 1450
1475 1470 1463 1470 1471 1470 1464 1465 1465 1464 1465 1466 1465 1465 1465 1464 1464 1463 1463 1462 1462 1461 1461 1461 1460 1460 1459 1459 1458 1458 1457 1457 1456 1455 1455 1454 1453 1453 1452 1451 1449 1448 1447 1446
1469 1465 1466 1466 1465 1465 1464 1464 1463 1463 1463 1463 1462 1462 1462 1461 1461 1461 1460 1460 1459 1459 1458 1458 1457 1456 1456 1455 1455 1454 1454 1453 1452 1452 1451 1450 1449 1448 1448 1447 1446 1444 1443 1442
1469 1464 1464 1464 1463 1463 1462 1462 1461 1461 1461 1460 1460 1459 1459 1459 1458 1458 1457 1457 1456 1456 1455 1454 1454 1453 1453 1452 1452 1451 1450 1450 1449 1448 1447 1447 1446 1445 1444 1443 1442 1441 1439 1438
1465 1463 1462 1460 1460 1460 1460 1460 1459 1459 1459 1458 1458 1457 1457 1456 1455 1455 1454 1454 1453 1453 1452 1451 1451 1450 1450 1449 1448 1448 1447 1446 1446 1445 1444 1443 1442 1441 1440 1439 1439 1438 1436 1435
1455 1457 1458 1457 1456 1457 1457 1456 1456 1456 1455 1455 1455 1454 1454 1453 1452 1452 1451 1451 1450 1450 1449 1448 1448 1447 1447 1446 1445 1444 1444 1443 1442 1441 1440 1439 1438 1437 1436 1436 1435 1433 1432 1431
1454 1454 1454 1454 1454 1454 1454 1453 1453 1452 1452 1452 1451 1451 1451 1450 1449 1449 1448 1447 1447 1446 1446 1445 1445 1444 1444 1443 1442 1441 1441 1440 1439 1438 1437 1436 1435 1433 1432 1431 1430 1429 1428 1426
1451 1452 1451 1451 1451 1451 1451 1450 1450 1450 1449 1449 1448 1448 1448 1447 1446 1445 1445 1444 1444 1443 1442 1442 1441 1441 1440 1440 1439 1438 1438 1437 1436 1435 1434 1433 1432 1430 1429 1427 1425 1424 1423 1421
1448 1448 1448 1448 1448 1448 1448 1448 1447 1447 1446 1446 1446 1445 1445 1444 1443 1442 1442 1441 1440 1440 1439 1438 1438 1437 1437 1436 1436 1435 1434 1434 1433 1432 1431 1430 1429 1427 1426 1424 1422 1420 1418 1417
1444 1444 1444 1444 1444 1444 1444 1444 1444 1443 1443 1443 1443 1442 1442 1441 1441 1440 1439 1438 1437 1436 1435 1435 1434 1434 1434 1433 1432 1432 1431 1431 1430 1429 1428 1426 1425 1424 1422 1421 1419 1417 1415 1414
1441 1440 1440 1440 1440 1440 1441 1441 1441 1441 1440 1440 1440 1439 1439 1438 1437 1436 1436 1435 1434 1433 1432 1432 1431 1431 1430 1430 1429 1428 1428 1427 1426 1425 1424 1423 1422 1420 1419 1417 1416 1414 1412 1411
1437 1437 1437 1437 1437 1437 1437 1437 1437 1437 1437 1437 1436 1436 1435 1435 1434 1433 1432 1431 1431 1430 1429 1429 1428 1428 1427 1427 1426 1425 1424 1423 1423 1422 1421 1419 1418 1417 1416 1414 1412 1411 1409 1407
1434 1434 1434 1434 1433 1433 1433 1434 1434 1433 1433 1433 1433 1432 1432 1431 1431 1430 1429 1428 1427 1426 1426 1426 1425 1425 1424 1424 1423 1422 1421 1420 1419 1418 1417 1416 1415 1414 1412 1410 1409 1407 1405 1403
1430 1430 1430 1430 1430 1430 1430 1430 1430 1430 1430 1430 1429 1429 1428 1428 1427 1426 1425 1425 1424 1423 1423 1423 1422 1422 1421 1421 1420 1419 1418 1417 1416 1415 1414 1413 1411 1410 1408 1407 1405 1404 1402 1400
1428 1428 1428 1427 1427 1427 1427 1427 1426 1426 1426 1426 1426 1425 1425 1425 1424 1423 1422 1422 1422 1421 1420 1420 1419 1419 1418 1417 1417 1416 1415 1414 1413 1411 1410 1409 1407 1406 1404 1403 1401 1400 1398 1396
1426 1426 1425 1425 1425 1425 1424 1424 1424 1424 1423 1423 1423 1423 1422 1421 1421 1420 1420 1419 1419 1418 1417 1417 1416 1416 1415 1415 1414 1412 1411 1410 1409 1408 1406 1405 1404 1402 1400 1399 1397 1396 1394 1392
1425 1424 1424 1424 1423 1423 1422 1422 1422 1421 1421 1421 1420 1420 1419 1419 1418 1417 1416 1416 1416 1415 1414 1414 1413 1413 1412 1411 1410 1409 1407 1406 1405 1404 1403 1401 1400 1398 1396 1395 1393 1391 1389 1387
1423 1423 1422 1422 1421 1421 1420 1420 1420 1419 1419 1419 1418 1418 1417 1416 1415 1415 1414 1413 1413 1412 1411 1411 1410 1409 1408 1407 1406 1405 1403 1402 1401 1400 1398 1397 1395 1394 1392 1390 1388 1386 1384 1383
1421 1421 1420 1420 1419 1419 1418 1418 1418 1417 1417 1416 1416 1415 1414 1414 1413 1412 1411 1410 1410 1409 1408 1407 1406 1405 1404 1403 1401 1400 1399 1398 1396 1395 1393 1392 1390 1389 1387 1385 1383 1381 1379 1377
1419 1419 1418 1418 1418 1417 1417 1416 1415 1415 1414 1414 1413 1413 1412 1411 1410 1409 1408 1407 1406 1405 1404 1403 1402 1401 1400 1398 1397 1396 1394 1393 1392 1390 1389 1387 1385 1384 1382 1380 1378 1376 1374 1372
1417 1417 1416 1416 1415 1415 1414 1414 1413 1412 1412 1411 1410 1410 1409 1408 1407 1406 1405 1404 1403 1402 1401 1400 1398 1397 1396 1394 1393 1391 1390 1388 1387 1385 1383 1382 1380 1378 1376 1375 1373 1371 1369 1367